KCIKMI Weather Reports


Display with metric or nautical units.
time (UTC)temp
F
wind
direction
speed
MPH
gust
MPH
rain 1hr
in
rain 24hr
in
rain mn
in
humidity
%
barometer
mb
20260508215526 60 3 1.0 7.0 0.00 0.00 0.00 48 1008.3
20260508215026 60 6 1.0 8.0 0.00 0.00 0.00 48 1008.3
20260508214547 60 5 3.0 8.0 0.00 0.00 0.00 47 1008.3
20260508214026 60 5 2.0 7.0 0.00 0.00 0.00 47 1008.2
20260508213525 60 346 0.0 5.0 0.00 0.00 0.00 48 1008.3
20260508213025 60 7 0.0 6.0 0.00 0.00 0.00 47 1008.2
20260508212526 60 10 2.0 6.0 0.00 0.00 0.00 48 1008.2
20260508212025 60 354 1.0 7.0 0.00 0.00 0.00 47 1008.2
20260508211525 60 360 1.0 7.0 0.00 0.00 0.00 47 1008.2
20260508211025 60 350 2.0 6.0 0.00 0.00 0.00 47 1008.2
20260508210525 60 360 2.0 6.0 0.00 0.00 0.00 47 1008.2
20260508210026 60 358 0.0 5.0 0.00 0.00 0.00 47 1008.0
20260508205523 61 8 0.0 5.0 0.00 0.00 0.00 47 1008.0
20260508205024 60 359 1.0 8.0 0.00 0.00 0.00 48 1008.0
20260508204626 60 358 1.0 8.0 0.00 0.00 0.00 46 1008.1
20260508204023 61 7 2.0 7.0 0.00 0.00 0.00 47 1007.9
20260508203523 61 86 2.0 6.0 0.00 0.00 0.00 48 1008.0
20260508203023 61 8 1.0 8.0 0.00 0.00 0.00 48 1008.0
20260508202523 60 118 2.0 8.0 0.00 0.00 0.00 48 1008.0
20260508202022 60 204 1.0 4.0 0.00 0.00 0.00 50 1008.0
20260508201522 60 5 0.0 5.0 0.00 0.00 0.00 50 1007.9
20260508201022 61 186 0.0 6.0 0.00 0.00 0.00 49 1007.9
20260508200522 62 204 1.0 8.0 0.00 0.00 0.00 50 1007.8
20260508200023 61 190 1.0 8.0 0.00 0.00 0.00 49 1007.8
20260508195521 61 356 0.0 8.0 0.00 0.00 0.00 53 1007.9
20260508195021 60 147 2.0 8.0 0.00 0.00 0.00 51 1007.9
20260508194521 59 100 0.0 5.0 0.00 0.00 0.00 55 1007.9
20260508194023 59 232 1.0 5.0 0.00 0.00 0.00 64 1008.1
20260508193520 58 209 0.0 5.0 0.00 0.00 0.00 57 1008.2
20260508193019 58 198 0.0 4.0 0.00 0.00 0.00 57 1008.1
20260508192520 58 95 1.0 4.0 0.00 0.00 0.00 56 1008.1
20260508192020 58 221 0.0 6.0 0.00 0.00 0.00 54 1008.2
20260508191520 58 280 1.0 7.0 0.00 0.00 0.00 55 1008.1
20260508191020 59 229 2.0 7.0 0.00 0.00 0.00 54 1008.1
20260508190518 59 11 0.0 6.0 0.00 0.00 0.00 49 1008.0
20260508190036 60 195 2.0 7.0 0.00 0.00 0.00 46 1008.0
20260508185519 60 357 2.0 8.0 0.00 0.00 0.00 43 1007.5
20260508185019 61 10 2.0 9.0 0.00 0.00 0.00 40 1007.5
20260508184528 62 353 4.0 9.0 0.00 0.00 0.00 38 1007.2
20260508184020 62 19 2.0 10.0 0.00 0.00 0.00 36 1006.9
20260508183517 62 230 1.0 10.0 0.00 0.00 0.00 37 1007.0
20260508183028 63 333 2.0 8.0 0.00 0.00 0.00 38 1007.0
20260508182517 63 11 2.0 7.0 0.00 0.00 0.00 35 1007.0
20260508182016 63 119 1.0 6.0 0.00 0.00 0.00 36 1006.9
20260508181518 64 326 1.0 6.0 0.00 0.00 0.00 36 1006.9
20260508181016 64 168 2.0 8.0 0.00 0.00 0.00 34 1007.0
20260508180516 65 205 2.0 9.0 0.00 0.00 0.00 36 1007.0
20260508180015 65 10 2.0 9.0 0.00 0.00 0.00 36 1007.0
20260508175514 66 14 0.0 6.0 0.00 0.00 0.00 35 1006.9
20260508175014 65 359 1.0 6.0 0.00 0.00 0.00 36 1006.9
20260508174512 65 202 1.0 5.0 0.00 0.00 0.00 35 1007.0
20260508174012 65 17 0.0 5.0 0.00 0.00 0.00 39 1007.2
20260508173510 64 209 1.0 5.0 0.00 0.00 0.00 39 1007.2
20260508173012 64 204 0.0 5.0 0.00 0.00 0.00 40 1007.2
20260508172510 63 156 0.0 5.0 0.00 0.00 0.00 38 1007.3
20260508172010 63 19 1.0 6.0 0.00 0.00 0.00 36 1007.3
20260508171510 63 359 1.0 8.0 0.00 0.00 0.00 37 1007.3
20260508171008 63 6 2.0 8.0 0.00 0.00 0.00 37 1007.4
20260508170509 63 180 0.0 6.0 0.00 0.00 0.00 39 1007.4
20260508170010 63 211 0.0 4.0 0.00 0.00 0.00 37 1007.3
20260508165508 63 356 0.0 8.0 0.00 0.00 0.00 39 1007.3
20260508165010 63 212 2.0 9.0 0.00 0.00 0.00 38 1007.5
20260508164519 64 337 2.0 9.0 0.00 0.00 0.00 36 1007.6
20260508164009 64 172 1.0 6.0 0.00 0.00 0.00 39 1007.6
20260508163506 63 337 1.0 6.0 0.00 0.00 0.00 39 1007.6
20260508163013 64 192 1.0 5.0 0.00 0.00 0.00 37 1007.6
20260508162505 63 203 2.0 8.0 0.00 0.00 0.00 37 1007.6
20260508162003 63 358 2.0 8.0 0.00 0.00 0.00 40 1007.7
20260508161507 63 199 0.0 6.0 0.00 0.00 0.00 46 1007.6
20260508161003 62 190 1.0 5.0 0.00 0.00 0.00 40 1007.7
20260508160505 62 15 1.0 5.0 0.00 0.00 0.00 38 1007.9
20260508160001 62 254 0.0 5.0 0.00 0.00 0.00 39 1007.8
20260508155501 63 3 0.0 5.0 0.00 0.00 0.00 41 1008.0
20260508155100 63 156 0.0 5.0 0.00 0.00 0.00 43 1007.9
20260508154559 62 14 0.0 4.0 0.00 0.00 0.00 40 1007.9
20260508154057 61 349 0.0 5.0 0.00 0.00 0.00 43 1008.0
20260508153558 60 171 0.0 5.0 0.00 0.00 0.00 42 1008.2
20260508153059 60 360 1.0 6.0 0.00 0.00 0.00 40 1008.2
20260508152557 61 335 1.0 8.0 0.00 0.00 0.00 42 1008.3
20260508152055 60 193 1.0 8.0 0.00 0.00 0.00 43 1008.4
20260508151554 60 360 1.0 7.0 0.00 0.00 0.00 40 1008.4
20260508151055 59 162 2.0 8.0 0.00 0.00 0.00 41 1008.4
20260508150553 59 350 1.0 8.0 0.00 0.00 0.00 42 1008.4
20260508150052 59 330 1.0 7.0 0.00 0.00 0.00 42 1008.5
20260508145551 59 351 2.0 7.0 0.00 0.00 0.00 42 1008.6
20260508145051 59 4 2.0 7.0 0.00 0.00 0.00 42 1008.6
20260508144553 58 351 1.0 8.0 0.00 0.00 0.00 42 1008.6
20260508144049 58 218 1.0 8.0 0.00 0.00 0.00 41 1008.6
20260508143549 58 214 1.0 7.0 0.00 0.00 0.00 43 1008.6
20260508143054 58 159 1.0 7.0 0.00 0.00 0.00 40 1008.7
20260508142547 58 356 2.0 9.0 0.00 0.00 0.00 42 1008.7
20260508142047 58 344 2.0 9.0 0.00 0.00 0.00 42 1008.7
20260508141559 58 187 0.0 6.0 0.00 0.00 0.00 42 1008.7
20260508141044 57 332 2.0 6.0 0.00 0.00 0.00 42 1008.7
20260508140548 57 187 1.0 6.0 0.00 0.00 0.00 45 1008.7
20260508140044 57 184 1.0 6.0 0.00 0.00 0.00 44 1008.7
20260508135542 57 14 1.0 6.0 0.00 0.00 0.00 44 1008.7
20260508135040 56 238 0.0 6.0 0.00 0.00 0.00 46 1008.9
20260508134541 56 175 0.0 7.0 0.00 0.00 0.00 45 1008.9
20260508134039 56 344 3.0 7.0 0.00 0.00 0.00 42 1008.9
20260508133537 55 10 2.0 8.0 0.00 0.00 0.00 43 1008.9
20260508133038 55 8 3.0 8.0 0.00 0.00 0.00 43 1009.0
20260508132535 55 5 3.0 7.0 0.00 0.00 0.00 44 1009.1
20260508132034 55 351 0.0 4.0 0.00 0.00 0.00 47 1009.1
20260508131533 54 228 1.0 3.0 0.00 0.00 0.00 47 1009.1
20260508131032 53 8 0.0 3.0 0.00 0.00 0.00 49 1009.1
20260508130531 53 188 0.0 7.0 0.00 0.00 0.00 49 1009.2
20260508130037 53 8 1.0 7.0 0.00 0.00 0.00 48 1009.2
20260508125531 52 15 0.0 5.0 0.00 0.00 0.00 49 1009.2
20260508125031 52 356 1.0 6.0 0.00 0.00 0.00 49 1009.2
20260508124535 52 213 1.0 6.0 0.00 0.00 0.00 49 1009.2
20260508124031 52 318 1.0 5.0 0.00 0.00 0.00 50 1009.2
20260508123530 51 360 2.0 5.0 0.00 0.00 0.00 50 1009.3
20260508123030 51 7 0.0 4.0 0.00 0.00 0.00 53 1009.3
20260508122529 51 221 0.0 7.0 0.00 0.00 0.00 54 1009.4
20260508122029 50 162 1.0 7.0 0.00 0.00 0.00 53 1009.3
20260508121529 50 318 1.0 4.0 0.00 0.00 0.00 54 1009.3
20260508121028 49 358 0.0 3.0 0.00 0.00 0.00 57 1009.3
20260508120528 49 355 0.0 4.0 0.00 0.00 0.00 56 1009.3
20260508120028 49 38 0.0 5.0 0.00 0.00 0.00 56 1009.3
20260508115528 49 320 0.0 5.0 0.00 0.02 0.00 56 1009.3
20260508115027 49 1 0.0 4.0 0.00 0.02 0.00 55 1009.2
20260508114526 49 359 1.0 4.0 0.00 0.02 0.00 54 1009.2
20260508114026 49 179 0.0 3.0 0.00 0.02 0.00 57 1009.1
20260508113529 48 143 0.0 0.0 0.00 0.02 0.00 57 1009.1
20260508113025 48 188 0.0 2.0 0.00 0.02 0.00 59 1009.1
20260508112527 48 188 0.0 2.0 0.00 0.02 0.00 57 1009.0
20260508112025 48 213 0.0 2.0 0.00 0.02 0.00 59 1009.0
20260508111525 48 150 0.0 1.0 0.00 0.02 0.00 60 1009.1
20260508111028 48 141 0.0 1.0 0.00 0.02 0.00 59 1009.1
20260508110525 48 171 0.0 1.0 0.00 0.02 0.00 59 1009.0
20260508110023 48 171 0.0 1.0 0.00 0.02 0.00 60 1009.0
20260508105523 48 164 0.0 1.0 0.00 0.04 0.00 61 1008.9
20260508105023 48 164 0.0 1.0 0.00 0.04 0.00 60 1008.9
20260508104521 48 164 0.0 1.0 0.00 0.04 0.00 60 1008.8
20260508104024 47 162 0.0 0.0 0.00 0.04 0.00 57 1008.7
20260508103521 47 162 0.0 0.0 0.00 0.04 0.00 57 1008.7
20260508103022 47 162 0.0 0.0 0.00 0.04 0.00 57 1008.6
20260508102522 47 162 0.0 0.0 0.00 0.04 0.00 58 1008.6
20260508102020 47 162 0.0 0.0 0.00 0.04 0.00 58 1008.6
20260508101520 47 162 0.0 0.0 0.00 0.04 0.00 57 1008.5
20260508101019 47 162 0.0 0.0 0.00 0.04 0.00 59 1008.4
20260508100518 47 162 0.0 0.0 0.00 0.04 0.00 58 1008.3
20260508100018 47 162 0.0 0.0 0.00 0.07 0.00 58 1008.3
20260508095518 47 162 0.0 0.0 0.00 0.07 0.00 58 1008.3
20260508095020 47 162 0.0 1.0 0.00 0.07 0.00 56 1008.2
20260508094517 47 162 0.0 1.0 0.00 0.07 0.00 56 1008.2
20260508094014 47 342 0.0 0.0 0.00 0.07 0.00 58 1008.2
20260508093514 47 342 0.0 0.0 0.00 0.07 0.00 58 1008.1
20260508093019 47 342 0.0 1.0 0.00 0.07 0.00 57 1008.1
20260508092514 47 342 0.0 1.0 0.00 0.07 0.00 58 1008.1
20260508092017 46 342 0.0 1.0 0.00 0.07 0.00 57 1008.0
20260508091515 46 342 0.0 0.0 0.00 0.07 0.00 56 1007.9
20260508091013 46 342 0.0 0.0 0.00 0.07 0.00 57 1007.9
20260508090513 46 342 0.0 0.0 0.00 0.07 0.00 56 1007.8
20260508090012 46 342 0.0 0.0 0.00 0.11 0.00 56 1007.8
20260508085514 46 342 0.0 0.0 0.00 0.11 0.00 56 1007.8
20260508085011 46 342 0.0 1.0 0.00 0.11 0.00 56 1007.8
20260508084511 46 342 0.0 2.0 0.00 0.11 0.00 56 1007.8
20260508084011 46 341 0.0 2.0 0.00 0.11 0.00 56 1007.9
20260508083510 46 15 0.0 1.0 0.00 0.11 0.00 56 1007.9
20260508083010 46 5 0.0 1.0 0.00 0.11 0.00 56 1007.9
20260508082515 46 17 0.0 1.0 0.00 0.11 0.00 56 1007.9
20260508082013 46 24 0.0 2.0 0.00 0.11 0.00 56 1007.8
20260508081511 46 15 0.0 2.0 0.00 0.11 0.00 56 1007.7
20260508081010 46 355 0.0 2.0 0.00 0.11 0.00 56 1007.6
20260508080507 46 355 0.0 2.0 0.00 0.11 0.00 56 1007.5
20260508080006 45 8 0.0 0.0 0.00 0.28 0.00 57 1007.3
20260508075505 46 8 0.0 0.0 0.00 0.28 0.00 56 1007.2
20260508075003 46 8 0.0 0.0 0.00 0.28 0.00 57 1007.2
20260508074503 46 8 0.0 0.0 0.00 0.28 0.00 55 1007.1
20260508074002 46 8 0.0 1.0 0.00 0.28 0.00 55 1007.1
20260508073502 46 8 0.0 1.0 0.00 0.28 0.00 55 1007.1
20260508073102 46 8 0.0 1.0 0.00 0.28 0.00 54 1006.9
20260508072600 46 24 0.0 1.0 0.00 0.28 0.00 54 1006.8
20260508072059 47 24 0.0 0.0 0.00 0.28 0.00 54 1006.8
20260508071558 47 24 0.0 0.0 0.00 0.28 0.00 53 1006.7
20260508071057 47 24 0.0 0.0 0.00 0.28 0.00 53 1006.8
20260508070600 47 24 0.0 0.0 0.00 0.28 0.00 54 1006.7
20260508070055 48 24 0.0 0.0 0.00 0.28 0.00 52 1006.6
20260508065555 48 24 0.0 0.0 0.00 0.28 0.00 52 1006.6
20260508065052 48 23 0.0 1.0 0.00 0.28 0.00 52 1006.6
20260508064552 48 23 0.0 1.0 0.00 0.28 0.00 51 1006.5
20260508064051 48 358 0.0 1.0 0.00 0.28 0.00 51 1006.5
20260508063551 48 351 0.0 0.0 0.00 0.28 0.00 51 1006.5
20260508063101 49 351 0.0 1.0 0.00 0.28 0.00 51 1006.4
20260508062553 49 351 0.0 1.0 0.00 0.28 0.00 50 1006.3
20260508062049 49 351 0.0 1.0 0.00 0.28 0.00 49 1006.2
20260508061549 49 351 0.0 2.0 0.00 0.28 0.00 49 1006.2
20260508061048 50 351 0.0 2.0 0.00 0.28 0.00 49 1006.2
20260508060546 50 6 0.0 1.0 0.00 0.28 0.00 48 1006.2
20260508060047 50 8 0.0 1.0 0.00 0.28 0.00 48 1006.3
20260508055544 50 5 0.0 2.0 0.00 0.28 0.00 49 1006.3
20260508055043 50 5 0.0 4.0 0.00 0.28 0.00 48 1006.3
20260508054543 50 6 1.0 4.0 0.00 0.28 0.00 47 1006.4
20260508054042 51 359 0.0 1.0 0.00 0.28 0.00 48 1006.3
20260508053540 51 359 0.0 1.0 0.00 0.28 0.00 47 1006.3
20260508053042 51 359 0.0 2.0 0.00 0.28 0.00 47 1006.3
20260508052539 51 360 0.0 3.0 0.00 0.28 0.00 46 1006.3
20260508052037 52 9 0.0 3.0 0.00 0.28 0.00 46 1006.3
20260508051540 52 59 0.0 3.0 0.00 0.28 0.00 46 1006.4
20260508051040 52 353 0.0 0.0 0.00 0.28 0.00 45 1006.4
20260508050536 52 1 0.0 0.0 0.00 0.28 0.00 45 1006.5
20260508050037 52 340 0.0 4.0 0.00 0.28 0.00 45 1006.6
20260508045533 53 185 0.0 5.0 0.00 0.28 0.00 44 1006.5
20260508045033 53 12 1.0 5.0 0.00 0.28 0.00 44 1006.5
20260508044534 53 4 0.0 4.0 0.00 0.28 0.00 45 1006.5
20260508044032 53 358 0.0 4.0 0.00 0.28 0.00 45 1006.6
20260508043532 53 221 1.0 4.0 0.00 0.28 0.00 45 1006.6
20260508043049 53 349 1.0 4.0 0.00 0.28 0.00 45 1006.5
20260508042533 53 349 1.0 4.0 0.00 0.28 0.00 46 1006.5
20260508042031 53 1 1.0 4.0 0.00 0.28 0.00 45 1006.5
20260508041530 53 342 0.0 6.0 0.00 0.28 0.00 45 1006.6
20260508041031 53 351 1.0 6.0 0.00 0.28 0.00 45 1006.6
20260508040531 53 9 0.0 4.0 0.00 0.28 0.00 45 1006.5
20260508040035 53 344 0.0 5.0 0.00 0.28 0.00 46 1006.5
20260508035527 53 358 0.0 5.0 0.00 0.28 0.28 44 1006.5
20260508035027 53 356 0.0 6.0 0.00 0.28 0.28 44 1006.6
20260508034527 53 360 0.0 6.0 0.00 0.28 0.28 44 1006.6
20260508034027 53 8 1.0 4.0 0.00 0.28 0.28 45 1006.5
20260508033525 53 22 0.0 5.0 0.00 0.28 0.28 44 1006.5
20260508033026 53 319 0.0 5.0 0.00 0.28 0.28 44 1006.5
20260508032530 53 353 0.0 4.0 0.00 0.28 0.28 45 1006.5
20260508032026 53 349 1.0 5.0 0.00 0.28 0.28 44 1006.6
20260508031524 53 20 0.0 5.0 0.00 0.28 0.28 44 1006.5
20260508031024 53 357 0.0 5.0 0.00 0.28 0.28 46 1006.5
20260508030524 53 187 0.0 4.0 0.00 0.28 0.28 46 1006.5
20260508030026 53 14 0.0 4.0 0.00 0.28 0.28 45 1006.6
20260508025522 53 1 0.0 4.0 0.00 0.28 0.28 44 1006.7
20260508025025 53 350 0.0 5.0 0.00 0.28 0.28 44 1006.9
20260508024522 54 41 0.0 5.0 0.00 0.28 0.28 44 1007.0
20260508024022 54 162 0.0 2.0 0.00 0.28 0.28 44 1007.0
20260508023523 54 169 0.0 3.0 0.00 0.28 0.28 44 1007.0
20260508023022 54 150 0.0 3.0 0.00 0.28 0.28 44 1007.0
20260508022522 54 176 0.0 3.0 0.00 0.28 0.28 43 1006.9
20260508022022 54 17 0.0 3.0 0.00 0.28 0.28 43 1006.9
20260508021521 54 169 0.0 6.0 0.00 0.28 0.28 44 1007.0
20260508021021 54 345 0.0 6.0 0.00 0.28 0.28 43 1006.9
20260508020521 54 357 0.0 4.0 0.00 0.28 0.28 43 1007.0
20260508020029 54 358 0.0 4.0 0.00 0.28 0.28 43 1007.1
20260508015520 54 352 0.0 4.0 0.00 0.28 0.28 44 1007.1
20260508015020 54 5 0.0 2.0 0.00 0.28 0.28 44 1007.1
20260508014522 54 4 0.0 2.0 0.00 0.28 0.28 44 1007.0
20260508014020 55 4 0.0 4.0 0.00 0.28 0.28 44 1007.0
20260508013520 55 8 0.0 4.0 0.00 0.28 0.28 44 1006.9
20260508013019 55 353 0.0 2.0 0.00 0.28 0.28 44 1006.9
20260508012524 55 355 0.0 1.0 0.00 0.28 0.28 44 1006.9
20260508012019 55 358 0.0 1.0 0.00 0.28 0.28 43 1006.7
20260508011520 55 358 0.0 1.0 0.00 0.28 0.28 43 1006.7
20260508011019 56 356 0.0 2.0 0.00 0.28 0.28 43 1006.7
20260508010520 56 354 0.0 2.0 0.00 0.28 0.28 42 1006.6
20260508010020 56 351 0.0 2.0 0.00 0.28 0.28 41 1006.5
20260508005518 56 358 0.0 2.0 0.00 0.28 0.28 41 1006.4
20260508005017 56 356 0.0 3.0 0.00 0.28 0.28 41 1006.3
20260508004518 57 7 0.0 3.0 0.00 0.28 0.28 41 1006.4
20260508004017 57 1 0.0 5.0 0.00 0.28 0.28 40 1006.2
20260508003520 57 154 2.0 5.0 0.00 0.28 0.28 39 1006.1
20260508003018 57 351 0.0 2.0 0.00 0.28 0.28 41 1006.0
20260508002519 57 358 0.0 3.0 0.00 0.28 0.28 40 1005.9
20260508002018 57 8 0.0 3.0 0.00 0.28 0.28 39 1005.6
20260508001536 57 355 1.0 3.0 0.00 0.28 0.28 39 1005.4
20260508001017 58 150 0.0 2.0 0.00 0.28 0.28 39 1005.5
20260508000518 58 356 0.0 4.0 0.00 0.28 0.28 39 1005.3
20260508000017 58 345 0.0 7.0 0.00 0.28 0.28 39 1005.4
20260507235517 59 360 0.0 7.0 0.00 0.28 0.28 39 1005.4
20260507235016 59 17 2.0 5.0 0.00 0.28 0.28 38 1005.2
20260507234518 59 337 0.0 7.0 0.00 0.28 0.28 38 1005.2
20260507234052 59 12 1.0 7.0 0.00 0.28 0.28 37 1005.1
20260507233516 59 8 1.0 6.0 0.00 0.28 0.28 37 1005.1
20260507233018 60 137 1.0 8.0 0.00 0.28 0.28 37 1005.1
20260507232517 60 358 0.0 8.0 0.00 0.28 0.28 37 1005.1
20260507232015 60 11 1.0 5.0 0.00 0.28 0.28 37 1004.9
20260507231515 61 338 1.0 9.0 0.00 0.28 0.28 37 1004.9
20260507231015 61 337 2.0 9.0 0.00 0.28 0.28 36 1004.8
20260507230515 61 6 2.0 8.0 0.00 0.28 0.28 37 1004.8
20260507230015 61 357 1.0 7.0 0.00 0.31 0.28 36 1004.7
20260507225517 62 337 1.0 7.0 0.00 0.31 0.28 36 1004.7
20260507225015 62 355 1.0 10.0 0.00 0.31 0.28 36 1004.6
20260507224513 62 141 2.0 10.0 0.00 0.31 0.28 36 1004.5
20260507224014 62 349 1.0 11.0 0.00 0.31 0.28 36 1004.5
20260507223517 62 353 1.0 11.0 0.00 0.31 0.28 36 1004.5
20260507223014 63 12 2.0 9.0 0.00 0.31 0.28 35 1004.3
20260507222514 63 26 3.0 9.0 0.00 0.31 0.28 35 1004.3
20260507222013 63 358 0.0 7.0 0.00 0.31 0.28 36 1004.2
20260507221514 63 2 2.0 9.0 0.00 0.31 0.28 35 1004.1
20260507221014 64 360 1.0 9.0 0.00 0.31 0.28 35 1004.0
20260507220513 64 15 2.0 7.0 0.00 0.31 0.28 37 1004.1
20260507220021 64 318 1.0 8.0 0.00 0.33 0.28 36 1004.1